Weather History for Palacios, TX

Change the Weather History Date:

Wednesday, April 17, 2013

  Actual Average Record
Temperature  
Mean Temperature 78 °F -  
Max Temperature 80 °F 77 °F 87 °F (2003)
Min Temperature 75 °F 62 °F 42 °F (1999)
Cooling Degree Days 12    
Growing Degree Days 28 (Base 50)    
Moisture  
Dew Point 71 °F    
Average Humidity 83    
Maximum Humidity 89    
Minimum Humidity 76    
Precipitation  
Precipitation 0.00 in - - ()
Sea Level Pressure  
Sea Level Pressure 29.83 in    
Wind  
Wind Speed 17 mph (SE)    
Max Wind Speed 26 mph    
Max Gust Speed 33 mph    
Visibility 6 miles    
Events      
Averages and records for this station are not official NWS values.
T = Trace of Precipitation, MM = Missing Value Source: NWS Daily Summary

Daily Weather History Graph

Daily Weather History Graph

Search for Another Location

Airport:

Trip Planner

Search our weather history database for the weather conditions in past years. The results will help you decide how hot, cold, wet, or windy it might be!

Date:

Astronomy

Apr. 17, 2013 Rise Set
Actual Time 6:57 AM CDT 7:52 PM CDT
Civil Twilight 6:32 AM CDT 8:16 PM CDT
Nautical Twilight 6:04 AM CDT 8:45 PM CDT
Astronomical Twilight 5:34 AM CDT 9:14 PM CDT
Moon 12:21 PM CDT (4/17) 1:21 AM CDT (4/17)
Length of Visible Light 13h 43m
Length of Day
12h 55m
Waxing Crescent, 42% of the Moon is Illuminated
Apr 17
Waxing Crescent
Apr 18
First Quarter
Apr 25
Full
May 2
Last Quarter
May 9
New

Hourly Weather History & Observations

Time (CDT) Temp. Heat Index Dew Point Humidity Pressure Visibility Wind Dir Wind Speed Gust Speed Precip Events Conditions
12:53 AM 75.9 °F - 71.1 °F 85% 29.91 in 6.0 mi SE 18.4 mph 23.0 mph N/A   Haze
1:53 AM 75.0 °F - 71.1 °F 87% 29.91 in 6.0 mi SSE 15.0 mph - N/A   Overcast
2:53 AM 75.0 °F - 71.1 °F 87% 29.89 in 6.0 mi SE 12.7 mph - N/A   Overcast
3:22 AM 75.2 °F - 71.6 °F 89% 29.90 in 6.0 mi SE 12.7 mph - N/A   Overcast
3:53 AM 75.0 °F - 71.1 °F 87% 29.88 in 7.0 mi SE 15.0 mph - N/A   Overcast
4:53 AM 75.0 °F - 71.1 °F 87% 29.88 in 7.0 mi SE 16.1 mph - N/A   Overcast
5:10 AM 75.2 °F - 71.6 °F 89% 29.89 in 7.0 mi SE 15.0 mph - N/A   Overcast
5:53 AM 75.0 °F - 71.1 °F 87% 29.89 in 6.0 mi SE 10.4 mph - N/A   Overcast
6:53 AM 75.0 °F - 71.1 °F 87% 29.88 in 6.0 mi SE 11.5 mph - N/A   Overcast
7:32 AM 75.2 °F - 71.6 °F 89% 29.88 in 5.0 mi SE 11.5 mph - N/A   Overcast
7:53 AM 75.0 °F - 71.1 °F 87% 29.89 in 6.0 mi SE 13.8 mph - N/A   Overcast
8:44 AM 75.2 °F - 71.6 °F 89% 29.89 in 6.0 mi ESE 12.7 mph - N/A   Haze
8:53 AM 77.0 °F - 71.6 °F 83% 29.89 in 6.0 mi ESE 12.7 mph - N/A   Haze
9:49 AM 77.0 °F - 71.6 °F 83% 29.88 in 7.0 mi ESE 17.3 mph - N/A   Overcast
9:53 AM 77.0 °F - 71.1 °F 82% 29.88 in 6.0 mi ESE 15.0 mph 21.9 mph N/A   Haze
10:23 AM 77.0 °F - 71.6 °F 83% 29.88 in 7.0 mi ESE 16.1 mph - N/A   Overcast
10:53 AM 78.1 °F - 71.1 °F 79% 29.88 in 7.0 mi ESE 15.0 mph 23.0 mph N/A   Overcast
11:53 AM 79.0 °F - 71.1 °F 77% 29.87 in 8.0 mi SE 17.3 mph - N/A   Overcast
12:02 PM 78.8 °F - 71.6 °F 78% 29.87 in 8.0 mi SE 16.1 mph 23.0 mph N/A   Overcast
12:53 PM 80.1 °F 83.8 °F 72.0 °F 76% 29.86 in 7.0 mi SE 18.4 mph 23.0 mph N/A   Overcast
1:50 PM 78.8 °F - 71.6 °F 78% 29.83 in 5.0 mi SE 17.3 mph 24.2 mph N/A   Haze
1:53 PM 78.1 °F - 72.0 °F 81% 29.83 in 5.0 mi SE 19.6 mph 24.2 mph N/A   Haze
2:53 PM 79.0 °F - 72.0 °F 79% 29.80 in 5.0 mi SE 18.4 mph 28.8 mph N/A   Haze
3:53 PM 79.0 °F - 72.0 °F 79% 29.78 in 6.0 mi SE 21.9 mph 28.8 mph N/A   Haze
5:12 PM 78.8 °F - 71.6 °F 78% 29.74 in 5.0 mi SE 20.7 mph 29.9 mph N/A   Haze
5:53 PM 78.1 °F - 72.0 °F 81% 29.74 in 5.0 mi SE 24.2 mph 31.1 mph N/A   Haze
6:13 PM 78.8 °F - 71.6 °F 78% 29.74 in 6.0 mi SE 23.0 mph 32.2 mph N/A   Haze
6:27 PM 78.8 °F - 71.6 °F 78% 29.73 in 6.0 mi SE 26.5 mph 33.4 mph N/A   Haze
6:53 PM 77.0 °F - 71.1 °F 82% 29.72 in 5.0 mi SE 23.0 mph 33.4 mph N/A   Haze
7:53 PM 77.0 °F - 71.1 °F 82% 29.74 in 6.0 mi SE 24.2 mph 31.1 mph N/A   Haze
8:01 PM 75.2 °F - 71.6 °F 89% 29.73 in 6.0 mi North - - N/A   Haze
8:53 PM 75.9 °F - 71.1 °F 85% 29.74 in 6.0 mi SE 20.7 mph 32.2 mph N/A   Haze
9:53 PM 75.9 °F - 71.1 °F 85% 29.75 in 6.0 mi SE 20.7 mph 31.1 mph N/A   Haze
10:53 PM 75.9 °F - 71.1 °F 85% 29.75 in 6.0 mi SE 20.7 mph 28.8 mph N/A   Haze
11:53 PM 75.0 °F - 71.1 °F 87% 29.76 in 5.0 mi SE 18.4 mph 25.3 mph N/A   Overcast